Location: Lepreau
(45.1670°N, 66.4688°W)
Time: 17:59:26
(UTC-03:00)

ISS - Visible Passes

Search period start: 21 May 2026 00:00
Search period end: 31 May 2026 00:00
Orbit: 414 x 424 km, 51.6° (Epoch: 21 May)

Date Brightness Start Highest point End Pass type
(mag) Time Alt. Az. Time Alt. Az. Time Alt. Az.
21 May -2.6 21:29:10 10° NW 21:32:19 38° NNE 21:35:28 10° E visible
21 May -3.4 23:05:57 10° WNW 23:09:11 47° SW 23:09:27 46° SSW visible
22 May -3.8 22:18:09 10° WNW 22:21:30 76° SSW 22:23:26 23° SE visible
23 May -3.6 21:30:25 10° WNW 21:33:46 71° NNE 21:37:05 10° ESE visible
23 May -1.9 23:07:49 10° W 23:10:14 19° SW 23:10:24 19° SW visible
24 May -2.5 22:19:40 10° WNW 22:22:38 30° SW 22:24:27 18° S visible
25 May -3.2 21:31:44 10° WNW 21:34:58 48° SW 21:38:11 10° SE visible
26 May -1.2 22:22:14 10° WSW 22:23:31 12° SW 22:24:47 10° SSW visible
27 May -1.6 21:33:29 10° W 21:35:55 19° SW 21:38:22 10° S visible
